• Processing (Info)

  • MPEC 2022-P35 : 2022 OJ6

    The following Minor Planet Electronic Circular may be linked-to from your own Web pages, but must not otherwise be redistributed electronically.

    A form allowing access to any MPEC is at the bottom of this page.


    Read MPEC 2022-P34 Read MPEC 2022-P36


    M.P.E.C. 2022-P35                                Issued 2022 August 3, 11:52 UT
    
         The Minor Planet Electronic Circulars contain information on unusual
             minor planets and routine data on comets.  They are published
        on behalf of Division F of the International Astronomical Union by the
              Minor Planet Center, Smithsonian Astrophysical Observatory,
                              Cambridge, MA 02138, U.S.A.
    
                 Prepared using the Tamkin Foundation Computer Network
    
                                  MPC@CFA.HARVARD.EDU
                URL https://www.minorplanetcenter.net/    ISSN 1523-6714
    
                                    2022 OJ6                                 
    
    
    Observations:
         K22O06J  C2022 07 08.33151 18 22 34.40 +33 22 19.1                VEP035G96
         K22O06J  C2022 07 08.34198 18 22 46.76 +33 22 04.9          20.2 GVEP035G96
         K22O06J* C2022 07 30.54582523 50 51.730-03 14 22.88         21.76wUEP035F52
         K22O06J  C2022 07 30.56896923 50 56.789-03 15 41.15         21.49wUEP035F52
         K22O06J  C2022 07 30.58055023 50 59.323-03 16 20.68         21.09wUEP035F52
         K22O06J ^C2022 07 31.50085123 54 52.344-04 06 23.66         20.92GVEP035568
         K22O06J ^C2022 07 31.50182823 54 52.536-04 06 26.82         20.90GVEP035568
         K22O06J 1C2022 08 02.06940 00 00 35.02 -05 24 46.7          22.3 VXEP035033
         K22O06J 1C2022 08 02.07270 00 00 35.64 -05 24 55.6          21.6 VXEP035033
         K22O06J ^C2022 08 02.52516200 02 05.937-05 45 02.22         21.36GVEP035568
         K22O06J ^C2022 08 02.52614000 02 06.089-05 45 04.80         21.38GVEP035568
         K22O06J ^C2022 08 02.52711900 02 06.244-05 45 07.51         21.44GVEP035568
         K22O06J KC2022 08 03.38432300 04 42.86 -06 23 08.2          21.9 VuEP035H21
         K22O06J KC2022 08 03.38867400 04 43.49 -06 23 19.3          21.5 VuEP035H21
         K22O06J KC2022 08 03.39521300 04 44.45 -06 23 36.1          20.9 VuEP035H21
    
    Observer details:
    033 Karl Schwarzschild Observatory, Tautenburg.  Observers S. Melnikov, C.
        Hoegner, U. Laux, F. Ludwig, B. Stecklum.  Measurer B. Stecklum.  1.34-m
        f/3 Schmidt + CCD.
    568 Mauna Kea.  Observers R. Wainscoat, L. Wells, H. Flewelling.  Measurers R.
        Weryk, R. Wainscoat.  3.6-m Canada-France-Hawaii Telescope + CCD.
    F52 Pan-STARRS 2, Haleakala.  Observers J. Bulger, T. Lowe, A. Schultz, I.
        Smith.  Measurers K. Chambers, S. Chastel, T. de Boer, J. Fairlamb, H.
        Gao, M. Huber, C.-C. Lin, E. Magnier, Y. Ramanjooloo, R. Wainscoat, R.
        Weryk.  1.8-m Ritchey-Chretien + CCD.
    G96 Mt. Lemmon Survey.  Observer J. K. Hogan.  Measurers B. Gray, D. Rankin,
        F. C. Shelly.  1.5-m reflector + 10K CCD.
    H21 Astronomical Research Observatory, Westfield.  Observer R. Holmes.
        Measurers T. Linder, R. Holmes, L. Horn.  1.3-m f/4.0 astrograph + CCD.
    
    Orbital elements:
    2022 OJ6                                                 Earth MOID = 0.0362 AU
    Epoch 2022 Aug. 9.0 TT = JDT 2459800.5                  Veres                   
    M  10.07112              (2000.0)            P               Q                  
    n   0.34293709     Peri.  159.47219     +0.31336001     +0.94673012             
    a   2.0214348      Node   128.71482     -0.88400177     +0.31935903             
    e   0.4842798      Incl.    5.45778     -0.34690974     +0.04137507             
    P   2.87           H   24.98          G   0.15           U   7                  
    Residuals in seconds of arc
    220708 G96  0.8-  0.4+    220731 568  0.0   0.0     220802 568  0.0   0.0
    220708 G96  0.8+  0.4-    220731 568  0.0   0.0     220802 568  0.0   0.0
    220730 F52  0.0   0.1+    220802 033  0.7-  0.1-    220803 H21  0.3-  0.5+
    220730 F52  0.1-  0.3+    220802 033  0.1-  0.3+    220803 H21  0.4-  0.5+
    220730 F52  0.1-  0.0     220802 568  0.0   0.1-    220803 H21  0.3-  0.3+
    
    Ephemeris:
    2022 OJ6                 a,e,i = 2.02, 0.48, 5                   q = 1.0425
    Date    TT    R. A. (2000) Decl.     Delta      r    Elong.  Phase     V
    2022 07 04    17 08 12.6 +32 54 04   0.05655 1.0453   119.0    58.3    20.9
    ...
    2022 07 19    22 10 17.6 +14 53 33   0.04640 1.0471   130.7    47.4    20.2
    ...
    2022 07 27    23 32 01.2 +00 38 44   0.06726 1.0599   129.8    47.5    21.0
    ...
    2022 08 02    00 00 19.8 -05 20 06   0.08744 1.0746   131.3    45.2    21.6
    2022 08 03    00 03 33.5 -06 05 25   0.09100 1.0775   131.7    44.7    21.6
    2022 08 04    00 06 28.2 -06 47 37   0.09460 1.0805   132.2    44.1    21.7
    ...
    2022 08 10    00 18 42.1 -10 10 18   0.1170  1.1005   135.7    40.0    22.1
    ...
    2022 08 18    00 25 32.2 -13 12 19   0.1485  1.1327   141.7    33.6    22.5
    ...
    2022 09 02    00 22 43.2 -16 24 17   0.2154  1.2069   154.3    21.2    23.1
    
    M. P. C. Staff               (C) Copyright 2022 MPC           M.P.E.C. 2022-P35
    


    Read MPEC 2022-P34 Read MPEC 2022-P36


    MPEC number:

    Enter an MPEC number in one of the following forms:

    • 1997-B01 (the full form)
    • J97B01 (the packed version of the full form)
    • B01 (the abbreviated form)